Terminal Aerodrome Forecast
Issued by NWS

Home | Current Version | Previous Version | Text Only | Print | Product List | Glossary On
Versions: 1 2 3 4 5 6 7 8 9 10 11 12 13 14
000
FTUS43 KEAX 150500
TAFSTJ
TAF
KSTJ 150520Z 1506/1606 VRB04KT P6SM SCT050
     FM151500 26008KT P6SM SKC
     FM160000 17014KT P6SM SCT150=

USA.gov is the U.S. government's official web portal to all federal, state and local government web resources and services.